Showing default

KINEIS-2B, 62934

Orbit data source: Space-Track

KINEIS-2B, 62934 is a French payload satellite in SSO that was launched on Sat, 08 Feb 2025 UTC via an ELECTRON launch vehicle from the Rocket Lab Launch Complex (RLLC). Payload-class satellites include a variety of spacecraft equipped with specific instruments for various scientific and technological missions. These include communications satellites like Starlink; space stations such as the ISS; scientific satellites like the Hubble; Earth observation satellites from companies like Planet Labs, Umbra, and HawkEye 360; GPS; miniature CubeSats for education and research; and military/defense satellites.

Loading next visibility...
Identifier
62934, 2025-028G
Orbit
SSO
Country
Flag of FRFR
Related business
Manufacturer
KINEIS
Mission
Operational Commercial Communications
Bus & Motor
CUBESAT 16U, Unknown motor
Mass
28 kg wet, 28 kg dry
Launch date (UTC)
2025-02-08 (7 months ago)
Launch vehicle
ELECTRON
Launch site
Rocket Lab Launch Complex (RLLC)
Object type
Payload
Rocket body
Debris
Shape & HBR
Box + 2 Pan + 1 Ant, 0.8 m
Radar Cross Section
0.229 m², Medium (>0.1 m² and < 1m²)

Expand to show TLE details & history
Last TLE update: 9 hours ago

TLE from 9 hours ago
0 KINEIS-2B
1 62934U 25028G   25258.15053700  .00001782  00000-0  28943-3 0  9991
2 62934  98.0072 310.5926 0002547 330.7824  29.3241 14.72356219 32177
Epoch: 2025-09-15T03:36Z
TLE epoch observation values (Epoch: 2025-09-15T03:36:46.396Z)
Latitude
-0°
Longitude
-97.96003°
Altitude
655.002 km
Speed
7.531 km/s
True Right ascension
20h 42m 22s
True Declination
0° 00' 00"
Sunlit
Object was in full shadow at epoch
Visualization orbit readout
Latitude
Unknown
Longitude
Unknown
Altitude
Unknown
Speed
Unknown
Apparent Right ascension
Unknown
Apparent Declination
Unknown
Sunlit
N/A
Visualization observer readout
Local Sidereal Time
04:51:37
Azimuth
Unknown
Elevation
Unknown
Doppler factor
Unknown
Orbital elements
Apogee altitude
652.402 km
Perigee altitude
648.822 km
Semi-major axis
7,028.749 km
Eccentricity
0.00025
Inclination
98.0072°
RAAN
310.5926°
Arg. of periapsis
330.7824°
True anomaly
29.3384°
Mean anomaly
29.3241°
Eccentric anomaly
29.33125°
Mean motion
3.68321 °/min
Orbital period
97.74 mins
BSTAR
0.00028943
Loading maneuver chart data...
Computing Atmospheric mass density...
Loading historical data...
Loading historical data...
Loading historical data...
Loading historical data...
Loading historical data...
Loading historical data...
Loading historical data...

Documentation

Showing up to 5 results
|